マックホルツ第1彗星

96P/Machholz 1 (2023)

English version
Home page
Updated on May 28, 2023

---------------------------------------------------------------------

・ プロフィール

・ 写真集

・ 軌道要素

Epoch 2022 Aug. 9.0 TT = JDT 2459800.5                                          
T 2023 Jan. 31.09954 TT                                 Rudenko                 
q   0.1164209            (2000.0)            P               Q                  
n   0.18686649     Peri.   14.74882     -0.20316813     -0.50070117             
a   3.0300405      Node    93.95681     +0.79106511     -0.59035859             
e   0.9615778      Incl.   57.50628     +0.57700842     +0.63306799             
P   5.27                                                                        
From 1112 observations 1986 Sept. 5-2022 Aug. 24, mean residual 1".3.           
     Nongravitational parameters A1 = -0.01, A2 = -0.0002.                      

・ 星図

・ 光度変化

        m1 = 12.7 + 5 logΔ + 12.0 log r

---------------------------------------------------------------------

軌道要素はM.P.E.C. 2022-S20に掲載されたものです。
星図はステラナビゲータ Ver.10 (アストロアーツ) で作成したものです。
光度グラフはComet for Windowsで作成したものです。

---------------------------------------------------------------------

Copyright(C) Seiichi Yoshida (comet@aerith.net). All rights reserved.